User: anonymous   Login
Location: Unspecified
(0.0000°N, 0.0000°E)
Time: 03:47:06
(UTC+00:00)
Language:

AGILE - Orbit

View from above orbital plane
View from above orbital plane
View from above satellite
View from above satellite

Ground track
Ground track

The orbit data is extracted from the following two-line orbital elements,

1 31135U 07013A   14355.39636740  .00016702  00000-0  65125-3 0  1125
2 31135 002.4690 316.9563 0015751 311.2117 048.6580 15.22438716424543
Epoch (UTC): 21 December 2014 09:30:46
Eccentricity: 0.0015751
inclination: 2.4690°
perigee height: 487 km
apogee height: 509 km
right ascension of ascending node: 316.9563°
argument of perigee: 311.2117°
revolutions per day: 15.22438716
mean anomaly at epoch: 48.6580°
orbit number at epoch: 42454

The dashed part of the orbit path shows where the satellite is in the earth's shadow,  

DLR